Regional Weather Roundup
Issued by NWS Bismarck, ND

Home | Current Version | Previous Version | Text Only | Print | Product List | Glossary On
Versions: 1 2 3 4 5 6 7 8 9 10 11 12 13 14 15 16 17 18 19 20 21 22 23 24 25 26 27 28 29 30 31 32 33 34 35 36 37 38 39 40 41 42 43 44 45 46 47 48 49 50
000
ASUS43 KBIS 220510
RWRBIS

NWR BROADCAST TEXT
NATIONAL WEATHER SERVICE BISMARCK ND
1100 PM CST SUN DEC 21 2014

NOTE: "FAIR" INDICATES FEW OR NO CLOUDS BELOW 12,000 FEET WITH NO
SIGNIFICANT WEATHER AND/OR OBSTRUCTIONS TO VISIBILITY.


CITY           SKY/WX    TMP DP  RH WIND       PRES   REMARKS
WILLISTON      CLOUDY    30  27  88 SE3       29.39R
MINOT          CLOUDY    30  28  92 SE10      29.42S FOG
MINOT AFB      CLOUDY    30  30 100 SE13      29.43R FOG
BISMARCK       CLOUDY    29  28  96 SE8       29.45S FOG
DICKINSON      CLOUDY    37  34  89 W9        29.37R FOG
GARRISON         N/A     28  27  96 SE10      29.41S WCI  19
HETTINGER ARPT CLOUDY    36  33  89 W14       29.41S
JAMESTOWN      CLOUDY    32  30  92 SE6       29.47F FOG
BEACH          LGT RAIN  36  36 100 W17       29.42R
CARRINGTON     FOG       30  30 100 MISG      29.49S VSB 1
CROSBY         FAIR      27  27 100 CALM      29.39R
HARVEY         CLOUDY    30  30 100 SE9       29.47S FOG
HAZEN          CLOUDY    28  27  93 E3        29.42S
LINTON         FOG       28  28 100 SE6       29.44S VSB 1/2
MANDAN         FOG       28  28 100 SE7       29.43F VSB 1/2
OAKES            N/A     34  34 100 SE9       29.49S
RUGBY          CLOUDY    28  28 100 SE9       29.48S FOG     WCI  20
STANLEY        CLOUDY    28  28 100 E3        29.39R
TIOGA          CLOUDY    25  25 100 E3        29.41R
WATFORD CITY   MOCLDY    34  34 100 SW5       29.37R
$$

CITY           SKY/WX    TMP DP  RH WIND       PRES   REMARKS
GRAND FORKS    CLOUDY    33  32  96 S12       29.56F
GRAND FORKS AF CLOUDY    32  32 100 S14       29.56S
DEVILS LAKE    CLOUDY    28  25  86 S12       29.49S WCI  18
FARGO          CLOUDY    36  34  92 SE10      29.55F FOG
CANDO          CLOUDY    28  28 100 SE14      29.51S FOG     WCI  17
CAVALIER       CLOUDY    32  32 100 SE7       29.57S FOG
GWINNER        CLOUDY    34  34 100 SE9       29.51S
LANGDON        FOG       30  28  93 MISG      29.51S VSB 1/2
ROLLA          FOG       27  27 100 S10G18    29.49S VSB 1/2 WCI  17
WALHALLA         N/A     32  32 100 SE10      29.56S FOG
$$

CITY           SKY/WX    TMP DP  RH WIND       PRES   REMARKS
ABERDEEN       CLOUDY    36  33  89 S9        29.47S
MOBRIDGE       FOG       29  28  96 SE3       29.41S VSB 1/2
BUFFALO          N/A     38  35  89 W20G29    29.39R
RAPID CITY     CLOUDY    41  33  73 NW21G31   29.48R
GLASGOW        LGT SNOW  34  31  88 NW20      29.46R FOG
SIDNEY         CLOUDY    37  34  87 W10       29.41R
WOLF POINT     CLOUDY    37  33  85 W17       29.43R
GLENDIVE       CLOUDY    37  32  81 W26G33    29.43R
MILES CITY     MOCLDY    39  32  76 W21G29    29.52R
BAKER          LGT RAIN  37  32  82 W17       29.45R
$$

CITY           SKY/WX    TMP DP  RH WIND       PRES   REMARKS
BILLINGS       CLOUDY    41  20  43 W20       29.66R
GREAT FALLS    CLEAR     34  23  64 W15       29.69R
REGINA         CLOUDY    23  23 100 NE8       29.44R WCI  14
ESTEVAN        FOG       30  28  93 E9        29.39R VSB 1/4
$$



USA.gov is the U.S. government's official web portal to all federal, state and local government web resources and services.